Home > Weather > Northampton > Past weeks

Flag for United Kingdom Weather for the Past 2 Weeks in Northampton, England, United Kingdom

Now
43 °F

Light rain. Passing clouds.


Feels Like: 33 °F
Forecast: N/A
Wind: 24 mph from West

Location: Wittering

Current Time: Feb 6, 2016 at 11:32:36 PM

Latest Report: Feb 6, 2016 at 10:50 PM


Visibility: N/A

Pressure: 29.06 "Hg

Humidity: 93%

Dew point: 41 °F

Location of NorthamptonLocation

Historic Weather in Northampton — Graph

°F

Northampton Temperature Yesterday

Maximum temperature yesterday: 52 °F (at 12:50 PM)
Minimum temperature yesterday: 46 °F (at 2:50 AM)
Average temperature yesterday: 49 °F

High & Low Weather Summary for the Past Weeks

 TemperatureHumidityPressure
High57 °F (Jan 24, 1:50 PM)100% (Jan 23, 2:50 AM)30.39 "Hg (Jan 23, 2:50 AM)
Low36 °F (Feb 3, 3:50 AM)50% (Feb 2, 1:50 PM)29.03 "Hg (Feb 6, 8:50 PM)
Average48 °F83%29.91 "Hg
* Reported Jan 22 9:50 PM — Feb 6 9:50 PM, Northampton, Weather by CustomWeather, © 2016

Note: Actual official high and low records may vary slightly from our data, if they occured in-between our weather recording intervals... More about our weather records

Advertising

Northampton Weather History for the Previous 24 Hours

 ConditionsComfort  
Time TempWeatherWind HumidityBarometerVisibility
9:50 PM
Sat, Feb 6
48 °FSprinkles. Passing clouds.22 mph87%29.03 "HgN/A
8:50 PM48 °FPassing clouds.26 mph87%29.03 "HgN/A
7:50 PM48 °FLight rain. Partly cloudy.29 mph87%29.09 "HgN/A
6:50 PM52 °FSprinkles. Partly cloudy.31 mph77%29.09 "HgN/A
5:50 PM52 °FSprinkles. Passing clouds.36 mph77%29.12 "HgN/A
4:50 PM52 °FPartly sunny.35 mph77%29.15 "HgN/A
3:50 PM52 °FBroken clouds.28 mph77%29.18 "HgN/A
2:50 PM52 °FBroken clouds.30 mph77%29.21 "HgN/A
1:50 PM52 °FDrizzle. Overcast.28 mph82%29.27 "HgN/A
12:50 PM52 °FSprinkles. Overcast.26 mph88%29.30 "HgN/A
11:50 AM50 °FSprinkles. Broken clouds.24 mph94%29.36 "HgN/A
10:50 AM50 °FDrizzle. Low clouds.23 mph94%29.39 "HgN/A
9:50 AM48 °FSprinkles. Partly sunny.20 mph100%29.42 "HgN/A
8:50 AM48 °FLight rain. Partly sunny.17 mph100%29.47 "HgN/A
7:50 AM48 °FLight rain. Partly sunny.16 mph94%29.50 "HgN/A
6:50 AM48 °FPassing clouds.16 mph100%29.53 "HgN/A
5:50 AM48 °FSprinkles. Passing clouds.14 mph100%29.56 "HgN/A
4:50 AM48 °FPassing clouds.13 mph94%29.59 "HgN/A
3:50 AM48 °FPartly cloudy.9 mph94%29.62 "HgN/A
2:50 AM48 °FRain showers. Passing clouds.14 mph94%29.65 "Hg1 mi
1:50 AM48 °FPassing clouds.14 mph94%29.65 "HgN/A
12:50 AM48 °FRain showers. Passing clouds.16 mph94%29.68 "HgN/A
11:50 PM
Fri, Feb 5
48 °FRain. Passing clouds.17 mph94%29.68 "HgN/A
Weather by CustomWeather, © 2016

See weather overviewHow to use our weather pages